Location: UBC Liquid-Mirror Observatory
(49.2876°N, 122.5728°W)
Time: 07:03:07
(UTC-07:00)

Amateur Radio Satellites - All Passes

Search period start: 29 August 2014 06:33
Search period end: 30 August 2014 06:33
Location: UBC Liquid-Mirror Observatory, 49.2876°N, 122.5728°W

Satellite Date Start Highest point End Downlink Frequencies (MHz)
Time Altitude Azimuth
AO-7 29 Aug 06:32:55 06:41:10 71° 295° (WNW) 06:49:22 29.400 - 29.500 MHz
Saudisat 1A 29 Aug 06:33:54 06:37:45 28° 35° (NE) 06:41:34 436.775 MHz
Uosat F 29 Aug 06:34:13 06:38:53 41° 294° (WNW) 06:43:33 435.120 FM
JAS-1B 29 Aug 06:40:12 06:43:00 13° 323° (NW) 06:45:39 435.800 - 435.900 CW/SSB
RS-15 29 Aug 06:50:11 06:57:01 19° 98° (E) 07:03:47 29.354 - 29.394 USB, Beacon 29.352 USB
SO-50 29 Aug 06:56:29 07:00:16 25° 329° (NNW) 07:04:08 436.795 FM
KITSAT 1 29 Aug 06:57:58 07:05:11 34° 27° (NNE) 07:12:21 435.175 FM
STRAND 1 29 Aug 07:01:10 07:06:17 87° 255° (WSW) 07:11:25 ?
JAS-2 29 Aug 07:08:29 07:13:36 56° 101° (E) 07:18:58 435.800 - 435.900 CW/SSB, 435.910 FM
Hamsat 29 Aug 07:11:52 07:16:15 72° 102° (ESE) 07:20:35 145.90 MHz
UOSAT-12 29 Aug 07:23:51 07:28:31 76° 311° (NW) 07:33:16 437.025 FM, 437.400 FM
SO-67 29 Aug 07:40:39 07:43:24 22° 93° (E) 07:46:09 435.3500 MHz FM
Saudisat 1A 29 Aug 08:13:17 08:17:39 59° 235° (SW) 08:21:58 436.775 MHz
AO-7 29 Aug 08:26:43 08:32:39 23° 318° (NW) 08:38:34 29.400 - 29.500 MHz
SO-50 29 Aug 08:40:20 08:42:27 13° 353° (N) 08:44:36 436.795 FM
STRAND 1 29 Aug 08:43:52 08:46:15 13° 274° (W) 08:48:38 ?
Hamsat 29 Aug 08:49:03 08:51:42 16° 301° (WNW) 08:54:19 145.90 MHz
KITSAT 1 29 Aug 08:53:35 09:01:44 84° 53° (NE) 09:09:49 435.175 FM
JAS-2 29 Aug 08:54:22 08:58:28 24° 300° (WNW) 09:02:41 435.800 - 435.900 CW/SSB, 435.910 FM
RS-15 29 Aug 08:56:19 09:07:14 71° 121° (ESE) 09:18:03 29.354 - 29.394 USB, Beacon 29.352 USB
UOSAT-12 29 Aug 09:05:49 09:09:26 21° 333° (NNW) 09:13:05 437.025 FM, 437.400 FM
SO-67 29 Aug 09:13:27 09:16:30 29° 291° (WNW) 09:19:31 435.3500 MHz FM
HO-68 29 Aug 09:58:19 10:05:14 49° 100° (E) 10:12:06 435.675 MHz FM
SO-50 29 Aug 10:22:02 10:24:56 16° 18° (NNE) 10:27:52 436.795 FM
UKube-1 29 Aug 10:27:06 10:31:18 46° 100° (E) 10:35:28 145.840 MHz, 145.915 MHz
Oscar 11 29 Aug 10:34:51 10:38:58 38° 97° (E) 10:43:03 145.825 FM, Beacon 2401.500 USB
UOSAT-12 29 Aug 10:49:13 10:51:20 13° 357° (N) 10:53:26 437.025 FM, 437.400 FM
KITSAT 1 29 Aug 10:49:52 10:56:16 27° 254° (WSW) 11:02:39 435.175 FM
FUNcube-1 29 Aug 10:56:21 11:00:16 28° 94° (E) 11:04:13 145.950 - 145.970 MHz USB
RS-15 29 Aug 11:09:41 11:20:15 50° 329° (NNW) 11:30:54 29.354 - 29.394 USB, Beacon 29.352 USB
ISS 29 Aug 11:33:07 11:35:36 20° 141° (SE) 11:38:05 145.800 FM
HO-68 29 Aug 11:46:15 11:52:53 43° 300° (WNW) 11:59:30 435.675 MHz FM
JAS-1B 29 Aug 11:57:49 12:03:24 18° 44° (NE) 12:08:35 435.800 - 435.900 CW/SSB
SO-50 29 Aug 12:02:09 12:06:41 43° 41° (NE) 12:11:17 436.795 FM
UKube-1 29 Aug 12:03:51 12:07:15 23° 298° (WNW) 12:10:39 145.840 MHz, 145.915 MHz
Oscar 16 29 Aug 12:04:23 12:07:25 16° 54° (NE) 12:10:27 437.025 USB, Beacon 2401.1428
Oscar 11 29 Aug 12:11:21 12:15:01 27° 296° (WNW) 12:18:41 145.825 FM, Beacon 2401.500 USB
AO-27 29 Aug 12:28:34 12:30:38 12° 51° (NE) 12:32:43 436.795 MHz FM
UOSAT-12 29 Aug 12:30:04 12:33:20 18° 22° (NNE) 12:36:36 437.025 FM, 437.400 FM
FUNcube-1 29 Aug 12:32:35 12:36:44 37° 292° (WNW) 12:40:56 145.950 - 145.970 MHz USB
MaSat-1 29 Aug 12:47:55 12:49:29 11° 98° (E) 12:51:04 437.345 MHz
Oscar 19 29 Aug 13:06:34 13:11:26 44° 67° (ENE) 13:16:21 437.125 CW, 437.150 USB
ISS 29 Aug 13:08:38 13:11:58 82° 159° (SSE) 13:15:19 145.800 FM
RS-15 29 Aug 13:25:51 13:35:42 36° 2° (N) 13:45:41 29.354 - 29.394 USB, Beacon 29.352 USB
ITAMSAT 1 29 Aug 13:35:54 13:40:38 38° 65° (ENE) 13:45:23 435.822 SSB
HO-68 29 Aug 13:36:18 13:38:48 12° 323° (NW) 13:41:18 435.675 MHz FM
TMSAT-1 29 Aug 13:39:19 13:42:39 17° 55° (NE) 13:46:00 436.925 FM
Oscar 16 29 Aug 13:40:51 13:46:01 85° 74° (ENE) 13:51:15 437.025 USB, Beacon 2401.1428
SO-50 29 Aug 13:42:51 13:47:15 37° 241° (WSW) 13:51:42 436.795 FM
JAS-1B 29 Aug 13:43:01 13:52:22 56° 65° (ENE) 14:00:40 435.800 - 435.900 CW/SSB
AO-Echo 29 Aug 13:45:15 13:50:02 46° 69° (ENE) 13:54:42 ?
Uribyol 2 29 Aug 13:45:59 13:50:55 48° 67° (ENE) 13:55:52 436.500 FM
AO-7 29 Aug 13:55:10 14:00:38 20° 39° (NE) 14:06:05 29.400 - 29.500 MHz
AO-27 29 Aug 14:04:05 14:09:12 65° 71° (ENE) 14:14:21 436.795 MHz FM
UOSAT-12 29 Aug 14:09:49 14:14:30 55° 44° (NE) 14:19:07 437.025 FM, 437.400 FM
MaSat-1 29 Aug 14:20:36 14:25:32 70° 117° (ESE) 14:30:41 437.345 MHz
Gurwin Techsat 1B 29 Aug 14:24:25 14:29:28 47° 67° (ENE) 14:34:33 435.225 FM
Uosat F 29 Aug 14:37:56 14:39:52 12° 51° (NE) 14:41:48 435.120 FM
ISS 29 Aug 14:45:34 14:48:52 54° 359° (N) 14:52:09 145.800 FM
Oscar 19 29 Aug 14:46:25 14:50:56 30° 266° (W) 14:55:30 437.125 CW, 437.150 USB
ITAMSAT 1 29 Aug 15:15:28 15:20:10 35° 264° (W) 15:24:54 435.822 SSB
TMSAT-1 29 Aug 15:16:35 15:21:53 90° 88° (E) 15:27:13 436.925 FM
Oscar 16 29 Aug 15:23:06 15:26:04 15° 273° (W) 15:29:03 437.025 USB, Beacon 2401.1428
AO-Echo 29 Aug 15:24:49 15:29:01 26° 266° (W) 15:33:08 ?
Uribyol 2 29 Aug 15:26:16 15:30:37 27° 266° (W) 15:35:01 436.500 FM
JAS-1B 29 Aug 15:33:41 15:42:58 47° 263° (W) 15:51:21 435.800 - 435.900 CW/SSB
RS-15 29 Aug 15:40:13 15:50:58 54° 35° (NE) 16:02:01 29.354 - 29.394 USB, Beacon 29.352 USB
AO-7 29 Aug 15:43:44 15:51:53 61° 62° (ENE) 16:00:02 29.400 - 29.500 MHz
AO-27 29 Aug 15:45:24 15:49:11 20° 269° (W) 15:53:00 436.795 MHz FM
UOSAT-12 29 Aug 15:50:27 15:54:24 27° 244° (WSW) 15:58:18 437.025 FM, 437.400 FM
MaSat-1 29 Aug 15:58:48 16:03:03 26° 318° (NW) 16:07:22 437.345 MHz
Gurwin Techsat 1B 29 Aug 16:05:03 16:09:38 29° 266° (W) 16:14:16 435.225 FM
Uosat F 29 Aug 16:12:47 16:17:45 66° 71° (ENE) 16:22:43 435.120 FM
ISS 29 Aug 16:22:26 16:25:47 87° 18° (NNE) 16:29:08 145.800 FM
PCSat 29 Aug 16:22:28 16:23:57 11° 101° (ESE) 16:25:26 145.825 MHz
Hamsat 29 Aug 16:36:12 16:38:02 13° 56° (ENE) 16:39:53 145.90 MHz
TMSAT-1 29 Aug 16:59:43 17:02:34 15° 274° (W) 17:05:26 436.925 FM
JAS-2 29 Aug 17:25:09 17:30:42 41° 66° (ENE) 17:35:46 435.800 - 435.900 CW/SSB, 435.910 FM
OPAL 29 Aug 17:25:52 17:30:51 42° 100° (E) 17:35:46 ?
Sapphire 29 Aug 17:31:54 17:36:51 38° 114° (ESE) 17:41:50 437.095 MHz 1200 baud AX-25 AFSK
JAS-1B 29 Aug 17:34:51 17:35:29 10° 284° (WNW) 17:36:08 435.800 - 435.900 CW/SSB
AO-7 29 Aug 17:37:29 17:45:04 38° 263° (W) 17:52:42 29.400 - 29.500 MHz
RS-15 29 Aug 17:52:56 18:03:45 64° 241° (WSW) 18:14:58 29.354 - 29.394 USB, Beacon 29.352 USB
Uosat F 29 Aug 17:53:29 17:57:00 19° 270° (W) 18:00:33 435.120 FM
ISS 29 Aug 17:59:30 18:02:14 24° 217° (SW) 18:04:59 145.800 FM
PCSat 29 Aug 18:00:58 18:06:20 66° 120° (ESE) 18:11:44 145.825 MHz
Hamsat 29 Aug 18:08:59 18:13:18 86° 75° (ENE) 18:17:42 145.90 MHz
SO-67 29 Aug 18:18:26 18:20:37 16° 63° (ENE) 18:22:48 435.3500 MHz FM
HO-68 29 Aug 18:47:46 18:51:40 16° 42° (NE) 18:55:34 435.675 MHz FM
OPAL 29 Aug 19:04:58 19:09:38 34° 299° (WNW) 19:14:16 ?
STRAND 1 29 Aug 19:08:07 19:12:10 23° 92° (E) 19:16:12 ?
JAS-2 29 Aug 19:10:19 19:15:54 36° 263° (W) 19:20:59 435.800 - 435.900 CW/SSB, 435.910 FM
Sapphire 29 Aug 19:15:03 19:20:13 45° 315° (NW) 19:25:27 437.095 MHz 1200 baud AX-25 AFSK
PCSat 29 Aug 19:45:27 19:50:12 30° 322° (NW) 19:54:58 145.825 MHz
Hamsat 29 Aug 19:48:23 19:49:55 12° 274° (W) 19:51:27 145.90 MHz
SO-67 29 Aug 19:50:02 19:53:22 43° 261° (W) 19:56:43 435.3500 MHz FM
UKube-1 29 Aug 19:54:29 19:55:23 11° 53° (NE) 19:56:17 145.840 MHz, 145.915 MHz
RS-15 29 Aug 20:07:43 20:13:46 17° 264° (W) 20:19:58 29.354 - 29.394 USB, Beacon 29.352 USB
HO-68 29 Aug 20:31:01 20:37:57 56° 64° (ENE) 20:44:54 435.675 MHz FM
STRAND 1 29 Aug 20:46:43 20:51:42 55° 291° (WNW) 20:56:40 ?
MaSat-1 29 Aug 20:58:15 21:00:45 14° 29° (NNE) 21:03:09 437.345 MHz
Sapphire 29 Aug 21:01:45 21:05:04 16° 338° (NNW) 21:08:24 437.095 MHz 1200 baud AX-25 AFSK
UKube-1 29 Aug 21:26:28 21:30:47 70° 72° (ENE) 21:35:08 145.840 MHz, 145.915 MHz
PCSat 29 Aug 21:32:53 21:35:27 13° 347° (NNW) 21:38:01 145.825 MHz
Oscar 11 29 Aug 21:33:46 21:37:58 51° 71° (ENE) 21:42:13 145.825 FM, Beacon 2401.500 USB
FUNcube-1 29 Aug 21:57:02 22:00:52 36° 67° (ENE) 22:04:48 145.950 - 145.970 MHz USB
HO-68 29 Aug 22:19:32 22:25:58 35° 265° (W) 22:32:26 435.675 MHz FM
Saudisat 1A 29 Aug 22:26:00 22:27:57 13° 110° (ESE) 22:29:54 436.775 MHz
STRAND 1 29 Aug 22:28:51 22:29:51 11° 311° (NW) 22:30:50 ?
MaSat-1 29 Aug 22:34:17 22:39:00 51° 52° (NE) 22:43:09 437.345 MHz
Sapphire 29 Aug 22:48:52 22:50:54 12° 5° (N) 22:52:56 437.095 MHz 1200 baud AX-25 AFSK
UKube-1 29 Aug 23:05:05 23:07:29 15° 271° (W) 23:09:54 145.840 MHz, 145.915 MHz
Oscar 11 29 Aug 23:11:19 23:14:28 19° 269° (W) 23:17:39 145.825 FM, Beacon 2401.500 USB
PCSat 29 Aug 23:18:43 23:21:20 13° 14° (NNE) 23:23:58 145.825 MHz
KITSAT 1 29 Aug 23:27:14 23:34:06 32° 108° (ESE) 23:40:59 435.175 FM
FUNcube-1 29 Aug 23:33:52 23:37:23 26° 267° (W) 23:40:59 145.950 - 145.970 MHz USB
Saudisat 1A 30 Aug 00:02:25 00:06:50 85° 128° (SE) 00:11:17 436.775 MHz
MaSat-1 30 Aug 00:11:57 00:15:37 23° 255° (WSW) 00:18:56 437.345 MHz
Sapphire 30 Aug 00:32:17 00:36:29 22° 31° (NNE) 00:40:39 437.095 MHz 1200 baud AX-25 AFSK
AO-40 30 Aug 00:56:44 02:36:47 18° 216° (SW) 05:19:15 Beacon 2401.320
PCSat 30 Aug 01:01:44 01:06:34 31° 39° (NE) 01:11:21 145.825 MHz
Oscar 19 30 Aug 01:16:30 01:17:43 11° 84° (E) 01:18:55 437.125 CW, 437.150 USB
KITSAT 1 30 Aug 01:20:47 01:28:53 75° 310° (NW) 01:37:02 435.175 FM
Saudisat 1A 30 Aug 01:43:27 01:46:58 23° 330° (NNW) 01:50:30 436.775 MHz
Oscar 16 30 Aug 01:49:00 01:53:02 22° 91° (E) 01:57:02 437.025 USB, Beacon 2401.1428
Uribyol 2 30 Aug 01:56:28 01:58:23 12° 85° (E) 02:00:17 436.500 FM
AO-27 30 Aug 02:14:00 02:17:17 17° 89° (E) 02:20:32 436.795 MHz FM
Sapphire 30 Aug 02:15:19 02:20:47 78° 53° (NE) 02:26:13 437.095 MHz 1200 baud AX-25 AFSK
Gurwin Techsat 1B 30 Aug 02:38:00 02:40:26 13° 85° (E) 02:42:51 435.225 FM
PCSat 30 Aug 02:45:00 02:50:23 64° 240° (WSW) 02:55:44 145.825 MHz
Oscar 19 30 Aug 02:52:47 02:58:01 72° 103° (ESE) 03:03:11 437.125 CW, 437.150 USB
OPAL 30 Aug 03:07:56 03:11:42 21° 55° (NE) 03:15:31 ?
JAS-1B 30 Aug 03:15:54 03:22:45 49° 97° (E) 03:28:36 435.800 - 435.900 CW/SSB
KITSAT 1 30 Aug 03:18:39 03:25:41 31° 336° (NNW) 03:32:43 435.175 FM
ITAMSAT 1 30 Aug 03:23:21 03:28:30 61° 102° (ESE) 03:33:38 435.822 SSB
Saudisat 1A 30 Aug 03:26:37 03:28:09 12° 353° (N) 03:29:41 436.775 MHz
AO-Echo 30 Aug 03:26:37 03:31:21 73° 103° (ESE) 03:36:02 ?
Oscar 16 30 Aug 03:27:39 03:32:47 60° 290° (WNW) 03:37:53 437.025 USB, Beacon 2401.1428
TMSAT-1 30 Aug 03:28:37 03:33:03 26° 93° (E) 03:37:28 436.925 FM
Uribyol 2 30 Aug 03:33:30 03:38:43 78° 104° (ESE) 03:43:56 436.500 FM
AO-7 30 Aug 03:43:06 03:46:36 13° 82° (E) 03:50:05 29.400 - 29.500 MHz
AO-27 30 Aug 03:52:13 03:57:25 78° 287° (WNW) 04:02:36 436.795 MHz FM
Sapphire 30 Aug 03:59:46 04:03:37 20° 253° (WSW) 04:07:28 437.095 MHz 1200 baud AX-25 AFSK
SO-50 30 Aug 04:02:00 04:05:45 26° 116° (ESE) 04:09:35 436.795 FM
Gurwin Techsat 1B 30 Aug 04:15:54 04:21:15 83° 105° (ESE) 04:26:34 435.225 FM
Uosat F 30 Aug 04:17:43 04:20:26 15° 88° (E) 04:23:09 435.120 FM
PCSat 30 Aug 04:31:44 04:32:44 11° 259° (W) 04:33:43 145.825 MHz
Oscar 19 30 Aug 04:33:03 04:36:51 21° 302° (WNW) 04:40:38 437.125 CW, 437.150 USB
OPAL 30 Aug 04:45:02 04:50:05 71° 254° (WSW) 04:55:15 ?
ITAMSAT 1 30 Aug 05:03:34 05:07:37 24° 301° (WNW) 05:11:40 435.822 SSB
AO-Echo 30 Aug 05:06:33 05:09:37 18° 302° (WNW) 05:12:40 ?
JAS-1B 30 Aug 05:06:46 05:13:13 36° 302° (WNW) 05:18:47 435.800 - 435.900 CW/SSB
Saudisat 1A 30 Aug 05:07:07 05:09:36 15° 18° (NNE) 05:12:04 436.775 MHz
TMSAT-1 30 Aug 05:08:08 05:13:15 51° 292° (WNW) 05:18:22 436.925 FM
Oscar 16 30 Aug 05:09:24 05:11:07 12° 310° (NW) 05:12:51 437.025 USB, Beacon 2401.1428
Uribyol 2 30 Aug 05:14:03 05:17:38 19° 303° (WNW) 05:21:14 436.500 FM
KITSAT 1 30 Aug 05:17:33 05:23:54 24° 5° (N) 05:30:15 435.175 FM
AO-7 30 Aug 05:33:00 05:41:13 61° 104° (ESE) 05:49:22 29.400 - 29.500 MHz
AO-27 30 Aug 05:33:20 05:36:08 15° 307° (NW) 05:38:57 436.795 MHz FM
SO-50 30 Aug 05:41:39 05:46:04 52° 316° (NW) 05:50:37 436.795 FM
Hamsat 30 Aug 05:52:30 05:54:18 12° 86° (E) 05:56:06 145.90 MHz
Uosat F 30 Aug 05:54:52 05:59:54 85° 287° (WNW) 06:04:55 435.120 FM
Gurwin Techsat 1B 30 Aug 05:57:00 06:00:36 19° 304° (NW) 06:04:11 435.225 FM
UOSAT-12 30 Aug 06:04:55 06:09:07 35° 119° (ESE) 06:13:24 437.025 FM, 437.400 FM
JAS-2 30 Aug 06:14:14 06:18:10 21° 91° (E) 06:22:14 435.800 - 435.900 CW/SSB, 435.910 FM
RS-15 30 Aug 06:17:24 06:21:44 13° 93° (E) 06:26:02 29.354 - 29.394 USB, Beacon 29.352 USB
OPAL 30 Aug 06:28:54 06:29:55 11° 273° (W) 06:30:56 ?
